JAL162 RJTT-EFHK

Flight info

Callsign JAL162
Flight time N/A
Altitude 31000
Route INUBO Y808 PUTER A590 PUGAL/N0484F320 A590 POWAL/N0494F310 DCT OPAKE/N0487F330 DCT MARCC DCT JUJXI/N0482F340 DCT 80N165W DCT DEKMO DCT 8930N06000W/M084F350 82N020E/N0480F350 80N021E DCT BARUX/N0481F370 DCT IBOSU Y86 LUSEP
Aircraft B77W/H-SDE1E2E3FGHIJ2J3J4J5M1RWXY/LB1D1

Departure

Time 2026-02-22 03:23
Airport Tokyo Haneda International Airport (RJTT)

Arrival

Time N/A
Airport Helsinki Vantaa Airport (EFHK)
Time Latitude Longitude Altitude Speed Heading
2026-02-22 02:58 35.55594 139.78790 29 ft 0 kts 152°
2026-02-22 03:12 35.55602 139.78785 26 ft 2 kts 134°
2026-02-22 03:12 35.55613 139.78769 27 ft 2 kts 119°
2026-02-22 03:12 35.55619 139.78751 26 ft 2 kts 100°
2026-02-22 03:13 35.55620 139.78731 26 ft 2 kts 87°
2026-02-22 03:13 35.55618 139.78711 26 ft 2 kts 78°
2026-02-22 03:13 35.55614 139.78691 27 ft 2 kts 71°
2026-02-22 03:13 35.55609 139.78672 25 ft 2 kts 66°
2026-02-22 03:14 35.55602 139.78654 26 ft 2 kts 62°
2026-02-22 03:14 35.55598 139.78646 27 ft 0 kts 59°
2026-02-22 03:16 35.55613 139.78675 26 ft 6 kts 58°
2026-02-22 03:17 35.55639 139.78727 27 ft 8 kts 59°
2026-02-22 03:17 35.55667 139.78783 28 ft 8 kts 58°
2026-02-22 03:17 35.55694 139.78840 28 ft 8 kts 60°
2026-02-22 03:17 35.55722 139.78899 28 ft 9 kts 60°
2026-02-22 03:18 35.55776 139.78965 28 ft 12 kts 25°
2026-02-22 03:18 35.55853 139.78923 28 ft 15 kts 323°
2026-02-22 03:18 35.55955 139.78848 28 ft 20 kts 329°
2026-02-22 03:18 35.56092 139.78750 28 ft 26 kts 330°
2026-02-22 03:19 35.56227 139.78657 28 ft 22 kts 330°
2026-02-22 03:19 35.56362 139.78561 28 ft 22 kts 327°
2026-02-22 03:19 35.56460 139.78503 27 ft 11 kts 353°
2026-02-22 03:19 35.56513 139.78532 27 ft 5 kts 43°
2026-02-22 03:20 35.56523 139.78551 28 ft 0 kts 59°
2026-02-22 03:20 35.56524 139.78551 28 ft 1 kts 59°
2026-02-22 03:21 35.56536 139.78577 28 ft 7 kts 59°
2026-02-22 03:21 35.56555 139.78650 28 ft 11 kts 96°
2026-02-22 03:21 35.56514 139.78709 28 ft 0 kts 144°
2026-02-22 03:22 35.56511 139.78712 28 ft 8 kts 145°
2026-02-22 03:22 35.56210 139.78927 28 ft 93 kts 150°
2026-02-22 03:22 35.55405 139.79498 29 ft 174 kts 151°
2026-02-22 03:22 35.54157 139.80389 216 ft 229 kts 149°
2026-02-22 03:23 35.52811 139.81358 1610 ft 213 kts 152°
2026-02-22 03:23 35.51725 139.82639 2310 ft 233 kts 118°
2026-02-22 03:23 35.51287 139.84626 2641 ft 242 kts 110°
2026-02-22 03:23 35.50662 139.86617 2802 ft 260 kts 120°
2026-02-22 03:24 35.49845 139.88629 3291 ft 269 kts 122°
2026-02-22 03:24 35.48966 139.90712 3786 ft 279 kts 122°
2026-02-22 03:24 35.48180 139.92904 4327 ft 288 kts 105°
2026-02-22 03:24 35.48232 139.95395 4837 ft 301 kts 71°
2026-02-22 03:25 35.50775 139.99417 6015 ft 303 kts 45°
2026-02-22 03:25 35.52215 140.01304 6707 ft 304 kts 45°
2026-02-22 03:25 35.53640 140.03173 7316 ft 303 kts 41°
2026-02-22 03:26 35.55413 140.04527 7760 ft 302 kts 12°
2026-02-22 03:26 35.57466 140.04726 8296 ft 295 kts 345°
2026-02-22 03:26 35.59367 140.03896 8885 ft 291 kts 326°
2026-02-22 03:26 35.60917 140.02334 9347 ft 287 kts 307°
2026-02-22 03:27 35.62186 140.00421 9881 ft 291 kts 305°
2026-02-22 03:27 35.63600 139.98634 10284 ft 300 kts 325°
2026-02-22 03:27 35.65627 139.97753 10412 ft 322 kts 351°
2026-02-22 03:27 35.67905 139.97502 10571 ft 340 kts 352°
2026-02-22 03:28 35.70349 139.97234 10715 ft 360 kts 352°
2026-02-22 03:28 35.72904 139.96924 10994 ft 375 kts 350°
2026-02-22 03:28 35.75455 139.96254 11397 ft 377 kts 339°
2026-02-22 03:28 35.77920 139.95108 12007 ft 381 kts 334°
2026-02-22 03:29 35.80374 139.93834 12684 ft 384 kts 333°
2026-02-22 03:29 35.82850 139.92563 13406 ft 387 kts 334°
2026-02-22 03:29 35.85364 139.91330 14076 ft 391 kts 335°
2026-02-22 03:29 35.87918 139.90118 14685 ft 395 kts 335°
2026-02-22 03:30 35.90495 139.88907 15047 ft 398 kts 335°
2026-02-22 03:30 35.93102 139.87684 15297 ft 403 kts 335°
2026-02-22 03:30 35.95727 139.86450 15982 ft 403 kts 336°
2026-02-22 03:30 35.98450 139.85612 16470 ft 412 kts 354°
2026-02-22 03:31 36.01322 139.85998 16943 ft 425 kts 15°
2026-02-22 03:31 36.04011 139.87560 17542 ft 432 kts 32°
2026-02-22 03:31 36.06263 139.90040 18136 ft 438 kts 50°
2026-02-22 03:31 36.07839 139.93275 18650 ft 444 kts 69°
2026-02-22 03:32 36.08586 139.96981 19147 ft 446 kts 85°
2026-02-22 03:32 36.08522 140.00797 19663 ft 443 kts 101°
2026-02-22 03:32 36.07916 140.04545 20114 ft 447 kts 104°
2026-02-22 03:32 36.07195 140.08297 20571 ft 451 kts 105°
2026-02-22 03:33 36.06434 140.12067 21100 ft 453 kts 105°
2026-02-22 03:33 36.05671 140.15849 21626 ft 455 kts 105°
2026-02-22 03:33 36.04918 140.19659 22137 ft 457 kts 105°
2026-02-22 03:33 36.04176 140.23496 22573 ft 461 kts 104°
2026-02-22 03:34 36.03442 140.27367 23045 ft 464 kts 104°
2026-02-22 03:34 36.02713 140.31260 23540 ft 466 kts 104°
2026-02-22 03:34 36.01983 140.35173 23961 ft 469 kts 104°
2026-02-22 03:34 36.01252 140.39100 24299 ft 473 kts 104°
2026-02-22 03:35 36.00510 140.43081 24631 ft 477 kts 104°
2026-02-22 03:35 35.99759 140.47094 24909 ft 482 kts 104°
2026-02-22 03:35 35.99001 140.51141 25238 ft 486 kts 104°
2026-02-22 03:35 35.98236 140.55211 25600 ft 488 kts 104°
2026-02-22 03:36 35.97465 140.59304 25948 ft 491 kts 104°
2026-02-22 03:36 35.96687 140.63423 26282 ft 494 kts 104°
2026-02-22 03:36 35.95903 140.67568 26575 ft 498 kts 104°
2026-02-22 03:36 35.95111 140.71743 26859 ft 502 kts 104°
2026-02-22 03:37 35.94312 140.75947 27169 ft 504 kts 104°
2026-02-22 03:37 35.93508 140.80170 27495 ft 507 kts 104°
2026-02-22 03:37 35.92697 140.84422 27802 ft 510 kts 104°
2026-02-22 03:37 35.92158 140.87245 27986 ft 512 kts 104°
2026-02-22 03:38 35.91058 140.92985 28344 ft 516 kts 104°
2026-02-22 03:38 35.90510 140.95843 28529 ft 517 kts 104°
2026-02-22 03:38 35.89686 141.00130 28807 ft 520 kts 104°
2026-02-22 03:38 35.88857 141.04432 29057 ft 522 kts 104°
2026-02-22 03:39 35.88015 141.08797 29300 ft 525 kts 104°
2026-02-22 03:39 35.87166 141.13187 29534 ft 527 kts 104°
2026-02-22 03:39 35.86311 141.17593 29742 ft 530 kts 104°
2026-02-22 03:39 35.85453 141.22013 30021 ft 530 kts 104°
2026-02-22 03:40 35.84594 141.26430 30325 ft 530 kts 104°
2026-02-22 03:40 35.83733 141.30846 30613 ft 529 kts 104°
2026-02-22 03:40 35.82870 141.35257 30853 ft 530 kts 104°
2026-02-22 03:40 35.82005 141.39673 31057 ft 531 kts 104°
2026-02-22 03:41 35.81133 141.44115 31103 ft 534 kts 104°
2026-02-22 03:41 35.79384 141.53001 31153 ft 532 kts 104°
2026-02-22 03:42 35.77640 141.61820 31152 ft 529 kts 104°
2026-02-22 03:42 35.75897 141.70602 31162 ft 528 kts 104°
2026-02-22 03:43 35.74148 141.79376 31172 ft 528 kts 104°
2026-02-22 03:43 35.71506 141.92559 31153 ft 530 kts 104°
2026-02-22 03:44 35.69754 142.01258 31166 ft 530 kts 104°
2026-02-22 03:44 35.67974 142.10061 31184 ft 531 kts 104°
2026-02-22 03:45 35.66192 142.18841 31174 ft 531 kts 104°
2026-02-22 03:45 35.64395 142.27654 31163 ft 532 kts 104°
2026-02-22 03:46 35.62592 142.36465 31175 ft 531 kts 104°
2026-02-22 03:46 35.60784 142.45262 31180 ft 531 kts 104°
2026-02-22 03:47 35.58981 142.54003 31191 ft 531 kts 104°
2026-02-22 03:47 35.57162 142.62787 31176 ft 531 kts 104°
2026-02-22 03:48 35.55336 142.71569 31183 ft 530 kts 104°
2026-02-22 03:48 35.53504 142.80342 31194 ft 531 kts 104°
2026-02-22 03:49 35.51664 142.89124 31189 ft 531 kts 104°
2026-02-22 03:49 35.49817 142.97910 31180 ft 532 kts 104°
2026-02-22 03:50 35.47980 143.06605 31187 ft 532 kts 104°
2026-02-22 03:50 35.46118 143.15397 31189 ft 533 kts 104°
2026-02-22 03:51 35.44566 143.24233 31170 ft 528 kts 89°
2026-02-22 03:51 35.44933 143.28667 31197 ft 521 kts 71°
2026-02-22 03:51 35.46250 143.32759 31199 ft 513 kts 56°
2026-02-22 03:52 35.50639 143.39408 31183 ft 500 kts 33°
2026-02-22 03:52 35.53509 143.41690 31209 ft 488 kts 24°
2026-02-22 03:52 35.56489 143.43716 31189 ft 491 kts 23°
2026-02-22 03:53 35.62472 143.47828 31198 ft 495 kts 24°
2026-02-22 03:53 35.68438 143.52090 31196 ft 495 kts 25°
2026-02-22 03:54 35.74331 143.56363 31183 ft 489 kts 25°
2026-02-22 03:54 35.80199 143.60605 31190 ft 489 kts 25°
2026-02-22 03:55 35.86055 143.64860 31189 ft 489 kts 25°
2026-02-22 03:55 35.91913 143.69133 31189 ft 490 kts 25°
2026-02-22 03:56 35.97783 143.73423 31205 ft 491 kts 25°
2026-02-22 03:56 36.03664 143.77726 31199 ft 491 kts 25°
2026-02-22 03:57 36.09541 143.82034 31179 ft 491 kts 25°
2026-02-22 03:57 36.15410 143.86345 31189 ft 490 kts 25°
2026-02-22 03:58 36.20691 143.90229 31175 ft 490 kts 25°
2026-02-22 03:58 36.26544 143.94536 31194 ft 489 kts 25°
2026-02-22 03:59 36.32386 143.98825 31178 ft 488 kts 25°
2026-02-22 03:59 36.38177 144.03084 31189 ft 488 kts 25°
2026-02-22 04:00 36.44014 144.07388 31189 ft 488 kts 25°
2026-02-22 04:00 36.49123 144.11162 31254 ft 487 kts 25°
2026-02-22 04:01 36.54964 144.15482 31201 ft 489 kts 25°
2026-02-22 04:01 36.60808 144.19815 31189 ft 489 kts 25°
2026-02-22 04:02 36.66654 144.24156 31186 ft 489 kts 25°
2026-02-22 04:02 36.72493 144.28501 31196 ft 488 kts 25°
2026-02-22 04:03 36.78319 144.32842 31196 ft 488 kts 25°
2026-02-22 04:03 36.84135 144.37194 31188 ft 487 kts 25°
2026-02-22 04:04 36.89932 144.41556 31190 ft 486 kts 25°
2026-02-22 04:04 36.95725 144.45924 31194 ft 486 kts 25°
2026-02-22 04:05 37.01502 144.50286 31208 ft 486 kts 25°
2026-02-22 04:05 37.07289 144.54661 31205 ft 486 kts 25°
2026-02-22 04:06 37.13077 144.59047 31197 ft 486 kts 25°
2026-02-22 04:06 37.18858 144.63434 31196 ft 486 kts 25°
2026-02-22 04:07 37.24635 144.67826 31201 ft 486 kts 25°
2026-02-22 04:07 37.30374 144.72198 31201 ft 486 kts 25°
2026-02-22 04:08 37.36147 144.76603 31217 ft 486 kts 25°
2026-02-22 04:08 37.41921 144.81017 31198 ft 485 kts 25°
2026-02-22 04:09 37.47688 144.85435 31203 ft 485 kts 25°
2026-02-22 04:09 37.53441 144.89849 31210 ft 484 kts 25°
2026-02-22 04:10 37.59231 144.94300 31205 ft 484 kts 25°
2026-02-22 04:10 37.64979 144.98726 31213 ft 484 kts 25°
2026-02-22 04:11 37.70668 145.03115 31219 ft 484 kts 25°
2026-02-22 04:11 37.76408 145.07552 31221 ft 483 kts 25°
2026-02-22 04:12 37.82138 145.11989 31220 ft 483 kts 25°
2026-02-22 04:12 37.87863 145.16431 31227 ft 483 kts 25°
2026-02-22 04:13 37.93582 145.20876 31222 ft 482 kts 25°
2026-02-22 04:13 37.99300 145.25328 31223 ft 482 kts 25°
2026-02-22 04:14 38.05003 145.29777 31234 ft 482 kts 25°
2026-02-22 04:14 38.06893 145.31253 31229 ft 482 kts 25°
2026-02-22 04:15 38.16407 145.38699 31234 ft 481 kts 25°
2026-02-22 04:15 38.22103 145.43168 31233 ft 481 kts 26°
2026-02-22 04:16 38.27790 145.47638 31236 ft 481 kts 26°
2026-02-22 04:16 38.31552 145.50616 31240 ft 482 kts 27°